Voltar ao catálogo

STARLINK-5849

AtivoComunicaçõesVLEO
NORAD 55924·PAYLOAD·🇺🇸 United States

Lançado Mar 17, 2023 de Vandenberg Space Force Base

Loading…

Próximas Passagens (próximas 24 horas)

TLE

AtualizadoSource: CelesTrak SupGP

Época: Sep 15, 2026, 02:28 UTC

1 55924C 23037L   26258.10326389  .00526640  00000+0  42770-1 0  2586
2 55924  70.0006 167.0450 0003124 273.6855 255.6506 14.99276126    16

Acompanhe STARLINK-5849 em tempo real com AllMySat

Download on the App Store